Vorticity
4 3 2 2 3 3 5 6 8 9 12 12 10 8 9 12 6 3 4 1 4 16 16 6 6 7 4 3 2 1 1 2 5 7 9 9 8 8 7 7 7 6 5 4 3 3 2 2 2 2 2 3 4 6 7 5 3 1 2 2 2 2 2 2 2 2 2 2 3 4 5 5 5 5 5 4 3 4 4 6 6 7 7 7 7
4 4 3 3 3 4 4 4 7 9 12 14 15 13 9 11 12 6 5 6 3 10 19 11 3 6 7 5 3 2 1 1 3 5 7 7 7 8 8 7 7 7 6 5 5 5 4 4 4 3 4 4 4 4 6 7 5 3 2 2 2 2 2 2 2 3 3 2 2 3 4 5 5 4 4 4 3 3 3 5 5 5 6 6 6
3 3 3 4 4 4 4 4 6 8 12 16 17 17 13 10 12 9 4 6 8 9 17 17 7 3 6 7 5 2 2 2 1 4 6 7 8 8 7 6 6 7 7 6 6 6 6 6 6 6 6 6 6 6 6 7 7 6 4 3 2 2 2 2 2 2 2 3 3 3 4 4 5 5 4 4 3 3 2 3 4 4 4 4 4
3 4 4 5 4 3 5 6 4 8 14 16 16 16 13 11 11 11 7 4 5 5 11 21 15 5 3 6 6 4 2 2 1 2 4 5 7 8 7 7 6 7 6 7 7 7 7 7 7 7 7 7 7 8 8 8 7 6 6 4 3 3 3 3 3 3 2 3 3 3 5 5 5 5 5 5 4 3 3 3 3 3 3 3 3
5 6 6 5 4 4 5 6 3 8 9 5 9 13 13 12 10 9 9 8 6 2 4 18 18 8 6 4 6 7 3 3 2 1 2 3 5 7 8 9 8 7 6 6 5 6 6 6 7 7 7 7 8 8 8 8 8 6 6 6 5 4 4 4 3 3 3 3 3 4 5 5 5 4 4 4 4 4 3 3 3 2 3 2 3
7 7 8 8 6 5 6 5 3 5 2 -2 4 11 12 12 10 8 7 9 11 8 5 14 17 9 8 8 5 8 7 3 3 1 1 2 3 4 6 9 9 9 8 7 6 6 6 5 6 6 6 6 6 7 8 8 8 7 7 6 6 5 4 4 4 4 4 3 4 4 4 5 5 5 4 4 4 4 4 3 3 2 2 2 2
10 9 10 9 7 7 7 4 4 5 3 1 4 9 10 7 9 12 10 9 10 12 10 12 20 9 1 8 6 7 12 7 3 2 2 1 2 3 4 6 8 9 9 7 7 6 7 6 5 6 6 7 6 6 7 7 7 7 8 7 7 6 5 4 4 5 5 4 4 4 4 4 5 5 5 5 5 4 4 4 3 3 2 2 2
10 10 11 9 8 7 6 6 5 5 5 4 5 9 10 6 6 9 11 12 8 11 12 9 24 19 -1 2 4 3 9 12 7 3 3 2 1 3 3 4 4 6 8 8 8 8 8 8 7 7 7 7 7 6 7 7 8 8 8 8 7 7 6 5 5 5 5 5 4 4 4 4 4 5 5 5 5 5 5 4 4 3 2 3 3
10 10 9 8 8 7 5 6 6 6 6 8 9 8 8 9 9 8 8 11 9 10 10 6 23 30 9 1 3 2 2 8 12 8 5 4 2 2 1 2 3 4 6 6 6 7 8 8 8 8 8 8 8 8 8 8 9 10 9 9 8 8 8 7 6 5 5 5 5 4 4 4 4 4 5 5 5 6 6 5 5 4 3 3 3
9 8 8 7 7 6 4 5 7 8 6 6 8 6 6 9 9 9 8 11 11 11 11 8 17 25 16 6 3 5 1 -0 8 12 10 6 3 3 2 1 2 2 4 5 5 5 5 6 6 6 7 8 8 8 8 9 10 11 12 11 9 9 9 9 8 6 6 4 4 4 4 4 4 4 4 4 4 5 6 6 5 5 4 3 4
8 8 8 6 6 5 5 6 6 7 6 6 8 6 6 9 9 8 7 8 10 13 14 11 10 11 12 11 6 9 6 -3 -0 7 12 11 4 2 3 2 2 2 2 3 4 4 4 3 4 5 5 5 7 7 7 7 9 10 12 13 12 11 10 9 9 7 6 5 4 3 3 3 4 3 3 4 4 5 6 6 5 5 5 4 3
7 8 8 8 8 7 7 7 4 5 9 12 14 10 5 6 7 5 6 8 7 10 13 7 6 9 11 11 7 11 11 1 -3 -1 5 10 10 5 3 2 2 2 2 2 3 3 3 3 2 2 3 4 5 6 6 6 7 8 10 12 13 11 11 10 9 9 7 6 5 4 4 3 4 4 3 4 4 5 6 7 6 5 5 5 3
6 6 8 8 9 9 9 8 7 7 5 5 7 9 8 6 5 4 8 11 8 8 7 1 5 13 19 20 12 11 15 11 3 -2 -2 3 8 10 7 4 3 2 1 0 1 2 2 2 3 2 2 2 4 4 5 5 5 7 8 10 11 10 9 9 9 9 8 7 5 5 5 3 3 4 4 4 4 5 6 7 7 6 5 5 4
5 5 6 7 8 8 8 8 8 8 5 4 5 6 6 4 5 7 6 8 13 15 7 1 5 5 7 17 16 12 14 16 12 5 -0 -3 1 8 10 8 6 4 3 1 0 1 1 2 1 3 3 2 3 3 4 5 5 6 7 8 9 8 7 7 7 8 8 8 6 5 5 4 4 4 4 4 4 4 6 7 7 7 6 5 4
5 5 5 5 7 7 7 8 8 8 9 9 8 9 8 5 6 7 3 2 10 18 11 8 16 10 3 12 24 27 21 15 16 16 11 3 -3 -2 4 9 9 6 4 2 2 1 0 2 2 1 4 3 3 3 2 3 4 4 5 6 7 7 7 7 6 6 7 8 8 6 5 5 4 4 4 4 4 5 5 6 7 7 7 7 6
6 6 6 5 6 7 7 7 8 9 10 10 9 10 11 10 10 10 8 6 5 9 9 10 16 14 10 17 26 38 38 20 14 17 16 13 8 3 0 1 6 8 8 6 4 4 2 2 3 2 3 3 3 4 3 2 2 2 3 4 4 5 6 7 7 6 6 6 8 7 6 5 4 3 4 4 5 6 6 6 6 7 7 6 6
7 7 7 5 5 6 7 7 8 9 9 10 11 10 10 10 11 12 12 12 8 4 4 8 14 9 5 6 5 19 34 28 25 26 18 10 7 12 13 7 4 1 4 8 3 4 5 2 3 3 2 3 2 3 3 3 3 2 2 3 3 4 4 4 5 4 5 4 4 5 5 5 5 5 4 5 5 5 6 6 6 6 6 6 6
8 7 7 7 6 7 7 8 8 9 9 9 11 11 12 11 10 11 11 12 12 9 5 4 10 10 5 2 1 11 18 14 23 35 36 26 9 7 11 14 24 16 3 8 8 3 6 4 4 4 2 2 2 3 3 3 3 3 2 2 3 3 3 4 4 3 3 3 3 3 3 3 3 4 4 4 4 4 4 5 5 5 5 5 5
9 9 9 8 8 8 9 9 9 9 9 9 11 12 12 12 11 12 11 11 12 12 10 5 4 8 5 -1 -1 7 10 5 11 21 36 46 33 17 3 -10 9 26 15 12 12 5 6 6 3 3 2 2 3 3 3 3 4 4 4 3 2 3 3 4 4 4 4 4 4 3 3 3 3 3 3 4 4 4 3 3 4 4 4 4 4
10 10 10 9 10 10 10 11 11 10 10 9 11 13 13 13 12 12 11 12 12 12 12 8 4 4 2 -1 -3 -2 3 4 6 6 13 34 39 29 20 -2 -13 1 9 8 7 5 6 7 5 4 4 5 5 6 5 5 5 4 4 4 3 3 3 3 4 4 5 5 5 4 4 4 3 3 3 3 3 3 3 4 4 3 3 3 3
11 10 10 10 10 11 11 12 11 11 11 10 10 13 14 13 12 13 12 12 13 13 14 12 9 7 4 4 4 1 0 -1 0 1 1 17 30 22 23 23 3 -3 6 8 9 12 9 6 3 4 7 8 8 7 6 6 6 6 6 5 5 4 3 3 3 3 4 3 3 4 3 4 4 4 3 3 3 3 3 3 4 4 4 4 4
12 11 11 12 11 12 12 13 12 11 10 10 11 12 14 15 13 12 12 12 12 13 15 15 13 13 10 7 8 6 7 5 3 4 2 7 20 18 16 20 12 8 13 10 13 23 25 21 14 11 16 20 18 12 8 7 5 6 7 7 6 6 4 5 6 7 8 7 7 5 4 4 4 4 4 4 4 3 3 4 4 5 6 6 6
12 12 12 13 13 13 13 13 12 11 10 9 10 12 13 14 14 13 12 12 12 12 13 15 14 14 14 13 13 12 11 10 7 8 10 7 9 14 15 14 13 15 13 6 12 22 27 28 25 20 22 29 32 24 15 13 10 8 11 10 9 9 8 7 7 7 8 9 10 10 9 9 8 7 5 4 5 6 6 7 8 8 7 7 7
11 13 14 14 13 13 13 13 12 11 10 8 9 11 12 13 14 13 13 12 12 12 12 13 14 13 14 13 14 15 13 13 13 11 12 12 9 11 13 13 14 17 12 5 9 14 13 11 9 8 11 22 34 31 18 12 9 9 12 12 10 9 8 5 4 3 4 5 6 8 9 10 12 12 11 9 8 9 10 11 12 11 10 8 7
9 11 14 15 14 13 11 11 11 10 10 9 8 9 10 12 14 14 14 13 12 12 12 12 13 12 13 12 11 13 12 11 14 15 14 13 11 11 13 12 11 14 17 14 8 4 4 5 5 5 7 13 25 29 19 9 5 4 6 6 4 3 2 2 2 3 6 7 8 8 7 6 7 10 12 13 11 10 10 11 11 11 11 10 10
9 9 11 13 13 14 13 12 12 11 9 9 8 9 10 9 11 12 13 14 12 12 12 11 12 13 12 11 11 12 12 10 11 14 16 15 12 11 12 13 12 10 12 15 12 4 1 3 5 6 8 11 16 21 19 13 9 6 4 2 2 3 4 5 6 7 9 11 12 12 13 9 4 4 7 10 11 11 8 7 8 9 9 9 9
8 8 9 11 12 13 13 13 13 13 11 10 9 9 10 9 9 9 10 11 12 12 12 10 10 11 11 10 10 10 11 10 10 11 14 14 13 13 12 13 15 14 12 11 12 11 9 9 10 7 7 8 8 10 12 12 12 12 8 6 7 7 9 9 8 9 9 9 10 13 21 21 10 3 3 5 7 9 8 6 5 4 4 4 4
6 6 7 8 9 10 11 12 12 14 14 12 11 9 9 9 8 8 8 8 8 8 10 10 9 8 9 9 8 8 9 8 7 7 10 11 11 11 12 12 12 14 15 14 12 11 11 12 15 16 14 11 9 7 5 5 6 8 8 7 7 6 7 8 8 10 10 10 10 10 18 28 23 10 3 3 3 5 7 5 2 0 -0 -1 -2
5 6 6 6 7 6 8 9 9 11 12 13 13 11 10 9 9 8 7 6 7 7 7 8 9 8 8 8 8 7 6 7 8 6 6 7 9 8 8 8 8 9 11 12 13 12 11 10 10 13 16 16 16 15 13 12 10 11 11 10 10 10 10 10 10 12 12 12 13 11 11 21 27 20 11 6 3 2 4 5 5 3 4 4 2
9 8 8 7 6 6 5 7 7 8 9 11 12 12 12 12 11 10 9 8 6 6 6 6 7 8 7 7 7 8 7 6 7 8 7 6 7 7 6 6 6 6 6 7 8 8 10 11 9 8 9 10 13 13 14 15 14 15 16 15 14 14 13 12 12 12 12 11 12 14 12 12 17 20 18 14 11 9 6 4 5 4 6 9 7
13 12 11 10 9 8 6 5 5 4 5 6 7 8 8 9 10 10 10 11 9 7 6 5 5 6 6 6 6 6 6 6 6 6 7 6 5 5 5 5 4 3 3 4 4 4 4 6 8 8 6 6 8 9 9 9 8 9 11 11 10 11 10 11 11 10 10 10 10 12 13 13 13 15 15 14 14 15 12 8 7 7 6 6 2
10 11 12 13 13 12 12 10 9 8 7 6 4 4 5 4 5 6 6 8 9 9 9 8 6 5 4 5 6 6 6 6 6 6 5 6 6 5 4 5 5 5 4 3 3 4 4 3 3 4 5 4 5 6 7 8 7 6 9 9 7 6 8 8 9 10 9 8 8 8 9 11 12 13 14 13 12 13 14 11 11 13 13 11 9
3 4 6 8 9 9 10 10 10 10 9 9 9 8 8 6 4 3 3 3 3 4 6 7 7 7 6 5 5 6 6 6 7 7 7 6 6 7 6 6 5 6 7 7 6 5 6 7 5 4 5 5 5 6 6 7 7 6 7 9 7 5 6 5 5 6 7 6 6 6 7 7 9 11 11 13 12 11 12 12 12 13 13 14 15
5 5 3 1 1 1 2 2 1 2 3 5 8 9 10 11 11 9 7 6 4 2 2 2 3 4 5 6 5 5 5 5 5 5 6 5 4 4 5 5 5 5 5 7 7 7 8 9 9 8 8 8 8 9 9 10 9 7 6 7 7 5 5 4 3 4 3 3 5 5 5 6 6 8 8 9 10 9 9 10 11 12 11 12 12
5 7 7 4 3 2 3 4 4 5 5 4 4 5 6 8 11 13 13 11 9 8 7 5 4 3 3 3 4 5 5 5 5 4 4 4 4 3 3 3 4 5 7 8 9 9 9 10 10 10 10 11 11 10 11 12 13 12 10 9 8 7 6 5 5 5 3 3 5 4 4 5 4 5 6 6 8 8 9 9 9 10 12 12 11
2 6 7 6 7 5 3 6 7 6 9 10 8 6 6 6 8 11 14 13 11 10 10 10 10 9 8 7 6 5 5 4 4 4 4 4 4 4 5 5 5 6 9 11 12 12 11 11 10 10 10 11 12 12 11 11 12 13 13 12 11 9 9 8 6 7 5 5 7 6 5 5 5 4 5 5 6 7 7 9 10 10 11 10 10
7 8 5 4 6 7 4 3 -1 -3 2 9 10 9 7 7 6 7 10 13 12 11 10 11 11 10 10 9 9 8 8 7 6 5 5 5 6 7 7 8 9 9 10 11 12 13 13 11 10 9 10 9 10 12 12 10 10 12 12 13 13 12 11 11 10 9 7 5 6 7 7 7 6 5 5 6 6 6 6 6 7 9 11 12 11
9 9 6 3 3 3 1 -1 -3 -4 -1 2 3 5 6 6 8 8 6 8 10 9 8 8 9 10 10 9 8 8 8 8 8 8 8 7 8 8 9 9 10 11 11 10 9 10 10 10 10 9 9 9 9 10 11 11 11 12 11 12 14 15 14 14 13 13 12 10 8 7 6 8 8 7 6 6 5 6 7 6 5 5 7 9 11
6 6 4 4 4 3 -1 -5 -6 -6 -4 -3 -3 -0 -0 1 7 9 6 5 5 6 5 4 3 5 7 9 9 9 8 7 7 7 8 9 9 9 10 10 11 12 12 10 7 6 6 6 8 10 10 11 11 10 9 9 9 9 10 9 10 11 12 12 14 15 15 14 13 10 7 7 7 8 8 7 7 6 6 6 6 5 5 6 8
7 5 2 2 5 7 4 1 2 2 3 2 1 2 3 2 5 9 9 6 5 5 6 5 4 4 4 5 8 9 9 8 8 7 6 7 8 9 9 10 11 13 13 11 9 7 5 5 6 8 8 7 7 6 5 6 7 7 7 6 5 6 8 8 9 10 12 12 13 15 14 12 11 10 9 9 9 8 7 7 6 5 5 5 5
7 7 4 1 1 3 0 3 10 11 10 10 6 4 8 7 4 8 11 10 9 9 8 6 5 4 4 4 6 9 10 8 9 8 7 6 6 7 9 10 12 13 12 9 8 8 8 8 8 6 3 1 1 2 3 3 4 4 6 7 6 6 6 7 7 8 9 10 12 13 14 14 15 14 14 13 10 8 8 8 6 6 5 5 5
4 5 5 4 4 1 -5 -1 8 6 6 11 7 -0 5 9 7 8 9 7 9 9 7 7 8 6 4 0 -1 5 10 10 10 8 7 7 6 8 10 11 13 14 11 7 6 7 7 7 6 4 1 -0 0 2 3 4 3 1 1 3 5 6 6 6 7 7 8 10 12 13 12 12 12 12 13 15 13 11 10 10 8 7 7 5 4
5 5 2 2 5 3 -4 -1 5 2 2 7 2 -2 4 8 9 9 6 5 8 9 8 12 15 16 15 9 4 4 6 8 11 11 9 7 6 9 13 15 16 13 7 3 4 4 4 5 3 1 -1 0 2 2 2 4 6 6 3 0 -1 0 1 2 1 2 2 2 5 9 10 10 9 9 10 12 13 12 12 13 11 8 8 8 7
2 6 5 4 4 2 1 3 3 -1 2 7 7 10 17 18 12 8 8 12 15 13 12 16 16 15 16 16 15 13 9 8 11 12 12 10 7 8 11 14 18 14 5 2 4 3 2 3 2 2 1 1 1 3 3 2 3 5 6 5 1 -2 -2 -2 -3 -2 -3 -3 0 4 6 8 8 8 9 9 11 11 10 12 13 12 10 9 8
-1 5 7 7 6 5 2 3 2 -1 0 4 5 5 7 10 9 3 2 6 8 6 10 16 13 8 8 11 14 15 11 10 12 15 15 14 10 8 9 11 16 16 5 -2 -1 1 1 0 1 2 1 -1 -1 2 4 3 1 0 2 3 3 3 2 -0 -2 -1 -2 -2 1 1 3 8 9 7 7 7 8 9 9 10 13 14 13 11 10
3 4 3 4 7 7 5 5 8 9 7 8 9 5 -0 1 5 6 4 3 5 7 10 13 14 13 11 10 11 14 11 7 9 12 14 15 14 10 8 8 12 15 9 0 -3 -0 2 2 2 2 1 -1 0 2 3 3 2 1 1 0 0 1 2 1 1 2 3 2 1 0 3 9 10 8 8 7 8 9 9 9 10 11 12 13 12
9 9 6 3 2 4 8 10 12 14 14 11 10 10 9 9 11 14 15 11 9 9 6 7 14 18 13 6 8 16 16 9 8 10 9 9 12 12 11 10 10 12 12 9 5 4 3 3 3 5 4 2 1 2 2 1 1 1 -0 -1 -1 -1 -0 2 3 3 3 2 2 2 6 9 9 8 8 8 9 11 11 10 10 10 11 13 13
11 10 9 8 5 4 7 7 6 8 8 7 6 7 7 7 9 11 12 9 4 3 1 1 7 12 9 3 7 18 19 12 10 13 13 10 8 8 8 7 9 10 8 7 4 1 -1 -0 2 7 11 8 3 1 1 1 0 1 -0 -2 -3 -3 -2 0 2 2 2 3 3 3 6 8 8 7 8 7 8 10 13 14 13 11 10 10 12
9 8 9 10 9 9 9 8 8 9 7 6 7 6 6 10 14 15 14 10 5 5 9 11 11 13 11 6 6 16 21 14 5 5 13 17 14 10 8 4 4 6 5 4 3 2 3 4 5 9 14 14 8 1 0 2 1 -0 0 1 -0 -1 -3 -2 -0 1 3 4 4 4 4 5 5 4 5 7 8 10 15 18 16 13 10 9 12
10 9 10 11 12 13 11 10 9 9 6 3 3 5 12 19 18 12 11 11 6 5 11 14 9 7 6 1 -2 4 14 15 7 3 7 12 13 14 15 11 7 5 4 4 3 2 2 2 -1 -1 4 11 13 8 5 4 4 4 4 3 0 -0 0 1 3 5 5 5 4 4 2 2 4 6 6 9 12 13 18 23 20 16 15 13 12
14 13 12 12 13 12 10 11 13 9 6 6 8 9 10 7 -1 -5 -0 6 6 6 8 6 1 -2 2 5 4 3 6 7 6 3 4 6 9 11 14 17 16 15 14 12 9 7 6 5 5 4 5 9 14 13 9 6 4 5 6 3 1 1 2 4 5 4 4 5 5 4 3 5 8 9 10 13 15 16 21 26 24 20 20 17 13
Height
5809 5809 5809 5808 5808 5808 5808 5808 5808 5809 5810 5810 5811 5811 5811 5811 5812 5813 5813 5813 5813 5814 5814 5815 5817 5819 5821 5823 5824 5825 5827 5828 5829 5830 5831 5832 5833 5834 5835 5837 5838 5839 5841 5842 5844 5845 5846 5848 5849 5850 5851 5853 5854 5855 5856 5857 5857 5858 5859 5859 5860 5860 5860 5860 5860 5861 5861 5861 5861 5861 5861 5861 5861 5861 5861 5860 5860 5859 5859 5858 5858 5857 5857 5856 5856
5807 5807 5807 5807 5806 5806 5806 5806 5806 5807 5807 5808 5809 5810 5809 5809 5810 5811 5811 5811 5811 5811 5812 5813 5815 5817 5818 5821 5822 5823 5824 5826 5827 5828 5829 5830 5831 5832 5834 5835 5836 5837 5839 5840 5841 5843 5844 5846 5847 5848 5850 5851 5852 5853 5854 5855 5855 5856 5857 5857 5858 5858 5859 5859 5859 5859 5859 5860 5860 5860 5860 5860 5860 5860 5860 5860 5859 5859 5858 5858 5857 5857 5856 5856 5855
5805 5805 5805 5805 5804 5804 5804 5804 5804 5804 5805 5805 5806 5807 5808 5808 5808 5809 5809 5809 5809 5809 5810 5811 5813 5814 5816 5818 5820 5821 5822 5823 5824 5825 5827 5828 5829 5830 5832 5833 5834 5835 5837 5838 5839 5841 5842 5843 5845 5846 5847 5849 5850 5851 5852 5853 5853 5854 5855 5855 5856 5856 5857 5857 5857 5858 5858 5858 5858 5859 5859 5859 5859 5859 5859 5859 5858 5858 5858 5857 5857 5856 5856 5855 5855
5802 5803 5803 5803 5802 5802 5802 5802 5802 5803 5803 5802 5803 5804 5805 5806 5806 5807 5807 5808 5808 5808 5808 5809 5810 5812 5813 5815 5817 5818 5819 5821 5822 5823 5824 5825 5827 5828 5829 5830 5832 5833 5834 5835 5837 5838 5839 5841 5842 5844 5845 5846 5847 5848 5849 5850 5851 5852 5853 5853 5854 5854 5855 5855 5856 5856 5856 5857 5857 5857 5857 5858 5858 5858 5858 5858 5857 5857 5857 5857 5856 5855 5855 5855 5854
5800 5800 5800 5800 5800 5799 5799 5800 5800 5801 5800 5800 5800 5801 5802 5804 5804 5804 5805 5806 5806 5807 5807 5807 5808 5809 5811 5812 5814 5815 5817 5818 5819 5820 5822 5823 5824 5826 5827 5828 5829 5831 5832 5833 5834 5835 5836 5838 5839 5841 5842 5844 5845 5846 5847 5848 5849 5850 5851 5851 5852 5852 5853 5853 5854 5854 5855 5855 5855 5855 5856 5856 5856 5857 5857 5857 5856 5856 5856 5856 5855 5855 5854 5854 5853
5797 5797 5798 5798 5797 5797 5797 5797 5798 5798 5798 5798 5798 5798 5800 5801 5801 5802 5802 5803 5805 5805 5805 5805 5805 5806 5808 5810 5811 5812 5814 5816 5817 5818 5820 5821 5822 5823 5825 5826 5827 5828 5829 5830 5831 5832 5834 5835 5836 5838 5840 5841 5843 5844 5845 5846 5847 5848 5849 5849 5850 5850 5850 5851 5852 5852 5853 5853 5854 5854 5854 5854 5855 5855 5855 5855 5855 5855 5855 5855 5854 5854 5853 5853 5852
5794 5794 5795 5795 5795 5794 5794 5794 5795 5795 5795 5796 5796 5796 5797 5798 5799 5799 5800 5801 5802 5802 5802 5802 5802 5802 5804 5806 5808 5809 5811 5813 5815 5816 5817 5819 5820 5821 5823 5824 5824 5825 5826 5827 5828 5830 5831 5832 5834 5835 5837 5838 5840 5841 5842 5843 5844 5845 5846 5847 5848 5848 5848 5849 5850 5850 5851 5852 5852 5852 5853 5853 5853 5853 5854 5854 5854 5854 5854 5853 5853 5853 5852 5852 5851
5792 5792 5792 5792 5792 5792 5792 5792 5792 5793 5794 5794 5794 5794 5795 5796 5796 5796 5797 5798 5799 5799 5799 5799 5799 5799 5801 5802 5804 5805 5807 5809 5811 5812 5814 5816 5817 5819 5820 5821 5822 5823 5824 5825 5826 5827 5829 5830 5831 5833 5834 5835 5837 5838 5839 5840 5842 5843 5844 5845 5845 5846 5846 5847 5848 5848 5849 5850 5850 5851 5851 5851 5851 5851 5852 5852 5852 5852 5852 5852 5852 5852 5851 5851 5850
5790 5789 5789 5789 5790 5790 5790 5790 5790 5790 5791 5791 5791 5792 5793 5793 5793 5794 5794 5795 5796 5796 5796 5796 5796 5797 5799 5800 5800 5801 5803 5805 5807 5809 5811 5813 5815 5816 5817 5818 5819 5821 5822 5823 5824 5825 5826 5827 5829 5830 5831 5833 5834 5835 5836 5838 5839 5840 5841 5842 5843 5844 5844 5845 5845 5846 5847 5848 5848 5849 5849 5849 5849 5849 5850 5850 5850 5850 5850 5850 5850 5850 5850 5849 5849
5788 5787 5787 5787 5787 5788 5788 5787 5787 5787 5788 5789 5789 5789 5789 5790 5791 5791 5792 5792 5793 5794 5794 5794 5794 5795 5796 5797 5798 5799 5799 5802 5804 5806 5808 5810 5812 5813 5814 5815 5816 5818 5819 5820 5822 5823 5824 5825 5826 5828 5829 5830 5831 5833 5834 5835 5836 5837 5838 5839 5840 5841 5842 5843 5843 5844 5844 5845 5846 5846 5847 5847 5848 5848 5848 5848 5848 5849 5849 5848 5848 5848 5848 5848 5848
5785 5785 5785 5785 5785 5786 5785 5785 5785 5785 5786 5786 5786 5786 5786 5788 5789 5789 5789 5790 5791 5791 5792 5792 5792 5793 5793 5794 5796 5796 5796 5798 5800 5802 5805 5806 5808 5809 5811 5812 5813 5815 5816 5817 5819 5820 5821 5823 5824 5825 5826 5828 5829 5830 5831 5832 5834 5835 5835 5837 5838 5839 5840 5841 5841 5842 5842 5843 5843 5844 5845 5845 5846 5846 5846 5846 5846 5847 5847 5846 5847 5847 5847 5846 5846
5783 5783 5783 5783 5783 5783 5783 5782 5782 5783 5784 5784 5784 5784 5784 5785 5786 5786 5787 5787 5788 5789 5789 5789 5790 5790 5790 5791 5793 5793 5793 5794 5796 5798 5800 5802 5803 5805 5807 5808 5809 5811 5813 5814 5815 5817 5818 5820 5821 5822 5824 5825 5827 5828 5829 5830 5831 5832 5833 5834 5836 5837 5838 5839 5839 5840 5840 5841 5841 5841 5842 5843 5843 5844 5844 5844 5844 5845 5845 5845 5845 5845 5845 5844 5844
5780 5780 5781 5781 5781 5780 5780 5780 5780 5780 5781 5782 5782 5782 5782 5782 5782 5783 5784 5784 5785 5785 5786 5786 5787 5787 5787 5788 5789 5790 5790 5790 5792 5794 5795 5797 5799 5801 5803 5804 5806 5808 5809 5810 5811 5813 5815 5817 5818 5820 5821 5823 5824 5825 5826 5827 5828 5830 5831 5832 5833 5834 5836 5836 5837 5838 5838 5838 5839 5839 5840 5841 5841 5841 5842 5842 5842 5842 5842 5842 5842 5842 5842 5842 5842
5778 5778 5778 5778 5778 5778 5777 5777 5777 5777 5778 5779 5779 5779 5779 5779 5779 5780 5781 5781 5781 5782 5782 5783 5783 5784 5784 5785 5786 5786 5787 5787 5788 5789 5790 5793 5795 5797 5798 5801 5802 5804 5805 5806 5808 5810 5811 5813 5815 5816 5818 5819 5821 5822 5823 5825 5826 5827 5828 5829 5830 5832 5833 5834 5834 5835 5836 5836 5836 5837 5837 5838 5838 5839 5839 5839 5839 5840 5840 5840 5840 5840 5840 5840 5840
5775 5775 5775 5775 5775 5775 5775 5774 5774 5775 5775 5776 5776 5776 5776 5777 5777 5778 5778 5778 5778 5778 5779 5780 5780 5781 5781 5781 5781 5782 5783 5784 5785 5785 5786 5788 5790 5792 5794 5796 5798 5799 5801 5803 5804 5806 5807 5809 5811 5813 5815 5816 5817 5818 5820 5821 5823 5824 5825 5826 5827 5828 5829 5830 5831 5832 5833 5833 5834 5834 5834 5835 5835 5836 5836 5836 5837 5837 5837 5837 5837 5838 5838 5838 5838
5772 5772 5772 5772 5772 5772 5772 5771 5771 5771 5772 5773 5773 5773 5773 5774 5774 5775 5775 5775 5774 5775 5776 5776 5777 5778 5778 5777 5777 5778 5778 5779 5780 5781 5782 5784 5786 5787 5790 5792 5793 5794 5796 5798 5800 5801 5803 5806 5807 5808 5810 5812 5813 5814 5815 5817 5819 5820 5822 5823 5824 5825 5826 5827 5828 5829 5830 5830 5831 5831 5832 5832 5833 5833 5834 5834 5834 5834 5834 5835 5835 5835 5835 5835 5835
5768 5769 5769 5769 5769 5769 5769 5768 5768 5767 5768 5769 5770 5770 5770 5770 5771 5771 5771 5771 5771 5772 5773 5773 5773 5774 5774 5774 5774 5774 5774 5776 5777 5777 5778 5780 5781 5783 5786 5788 5789 5790 5792 5794 5795 5797 5799 5801 5802 5804 5806 5807 5808 5810 5811 5813 5815 5816 5818 5819 5820 5821 5822 5824 5825 5826 5827 5828 5828 5829 5829 5830 5831 5831 5831 5831 5831 5831 5831 5832 5832 5832 5832 5832 5832
5765 5766 5766 5766 5766 5766 5766 5765 5765 5764 5764 5764 5766 5767 5766 5767 5767 5768 5768 5768 5768 5769 5770 5770 5770 5770 5771 5771 5771 5772 5772 5773 5773 5774 5775 5776 5777 5779 5782 5784 5785 5787 5789 5790 5792 5793 5795 5796 5797 5799 5801 5803 5804 5805 5807 5809 5810 5812 5813 5815 5816 5818 5819 5820 5821 5823 5824 5825 5825 5826 5827 5827 5827 5828 5828 5828 5828 5828 5828 5828 5829 5829 5829 5829 5830
5762 5762 5763 5763 5763 5763 5763 5762 5762 5761 5760 5761 5762 5763 5763 5764 5764 5764 5765 5764 5765 5766 5767 5767 5767 5768 5769 5769 5769 5769 5770 5770 5770 5771 5772 5772 5773 5774 5776 5777 5779 5782 5785 5786 5787 5789 5790 5791 5792 5794 5796 5798 5800 5801 5803 5805 5806 5808 5809 5811 5812 5814 5816 5817 5818 5819 5820 5821 5822 5822 5823 5824 5824 5824 5825 5825 5825 5825 5825 5825 5825 5826 5826 5826 5826
5758 5759 5759 5760 5760 5760 5759 5759 5759 5758 5758 5757 5758 5760 5760 5760 5761 5761 5761 5761 5761 5762 5763 5763 5764 5765 5766 5766 5766 5766 5767 5767 5768 5768 5769 5770 5771 5771 5772 5773 5775 5777 5780 5781 5782 5784 5785 5786 5789 5790 5791 5793 5795 5797 5798 5800 5801 5803 5805 5806 5808 5810 5812 5813 5814 5815 5816 5817 5818 5818 5819 5820 5821 5821 5821 5821 5822 5822 5822 5821 5822 5822 5822 5822 5823
5755 5756 5756 5757 5757 5757 5757 5756 5756 5756 5755 5755 5755 5756 5757 5757 5758 5758 5758 5758 5758 5759 5760 5760 5761 5762 5762 5763 5763 5764 5765 5764 5765 5765 5766 5767 5768 5769 5770 5770 5771 5773 5775 5776 5777 5779 5780 5782 5784 5786 5787 5788 5790 5792 5793 5795 5796 5798 5800 5801 5803 5806 5807 5808 5810 5811 5812 5813 5814 5815 5815 5815 5817 5817 5817 5818 5818 5818 5818 5818 5818 5818 5818 5818 5818
5753 5753 5753 5754 5754 5754 5754 5754 5754 5753 5753 5752 5752 5753 5754 5754 5755 5755 5755 5755 5755 5756 5756 5757 5758 5759 5759 5760 5760 5761 5762 5762 5762 5763 5763 5764 5765 5766 5767 5768 5769 5770 5771 5772 5774 5776 5776 5778 5779 5781 5782 5783 5784 5786 5788 5790 5791 5793 5795 5797 5798 5800 5802 5804 5805 5806 5807 5808 5810 5811 5810 5811 5812 5813 5813 5813 5814 5814 5814 5814 5814 5814 5814 5814 5814
5751 5751 5751 5751 5751 5751 5751 5751 5751 5751 5750 5750 5750 5750 5751 5751 5752 5752 5752 5752 5752 5752 5753 5754 5755 5756 5757 5757 5758 5759 5759 5759 5760 5760 5761 5762 5762 5763 5764 5765 5766 5767 5768 5769 5771 5772 5773 5774 5776 5777 5777 5778 5778 5780 5782 5784 5787 5789 5791 5792 5794 5795 5797 5799 5800 5801 5802 5804 5805 5806 5806 5806 5807 5808 5808 5809 5809 5810 5810 5810 5810 5810 5810 5810 5810
5748 5748 5748 5748 5748 5748 5748 5748 5748 5748 5748 5748 5748 5748 5748 5748 5749 5749 5750 5750 5750 5750 5750 5751 5752 5753 5754 5755 5756 5756 5757 5757 5758 5758 5759 5759 5760 5760 5761 5762 5763 5764 5765 5767 5768 5769 5770 5771 5772 5772 5773 5773 5773 5775 5777 5780 5782 5784 5786 5788 5790 5791 5792 5794 5795 5796 5797 5798 5799 5800 5801 5801 5802 5803 5803 5803 5804 5805 5805 5805 5805 5806 5806 5806 5806
5746 5746 5746 5746 5746 5746 5746 5746 5746 5745 5745 5745 5745 5745 5745 5746 5746 5747 5747 5747 5748 5748 5748 5749 5750 5751 5752 5752 5753 5754 5754 5755 5756 5756 5756 5757 5758 5758 5759 5760 5761 5761 5762 5764 5765 5765 5766 5767 5768 5768 5768 5769 5769 5771 5774 5776 5778 5780 5782 5784 5785 5786 5787 5788 5790 5791 5792 5793 5794 5795 5796 5796 5797 5798 5798 5798 5799 5800 5800 5801 5801 5801 5802 5802 5803
5743 5744 5744 5744 5744 5744 5743 5743 5743 5743 5743 5743 5743 5743 5743 5743 5743 5744 5744 5745 5746 5746 5747 5747 5748 5748 5749 5750 5751 5751 5752 5753 5753 5754 5754 5755 5756 5756 5757 5758 5759 5759 5760 5761 5762 5762 5763 5764 5765 5765 5765 5765 5767 5768 5771 5773 5774 5776 5778 5780 5781 5781 5782 5783 5785 5786 5787 5788 5789 5789 5790 5791 5792 5793 5793 5793 5794 5794 5795 5796 5797 5797 5797 5798 5799
5742 5742 5742 5742 5742 5742 5741 5741 5741 5741 5741 5740 5740 5740 5740 5741 5741 5741 5742 5742 5743 5744 5744 5745 5746 5746 5747 5748 5748 5749 5750 5750 5751 5751 5752 5753 5754 5754 5755 5756 5756 5757 5757 5758 5759 5760 5761 5762 5762 5762 5762 5763 5765 5766 5768 5769 5770 5771 5774 5776 5776 5776 5777 5779 5780 5781 5782 5783 5784 5784 5785 5785 5786 5787 5788 5788 5789 5789 5789 5790 5792 5793 5793 5794 5794
5740 5740 5740 5740 5739 5739 5739 5739 5739 5739 5739 5738 5738 5738 5738 5738 5738 5739 5739 5740 5740 5741 5742 5742 5743 5744 5745 5745 5746 5747 5747 5748 5749 5749 5750 5751 5752 5752 5753 5753 5754 5754 5755 5755 5756 5757 5758 5758 5759 5760 5760 5761 5762 5763 5765 5765 5766 5767 5770 5772 5772 5772 5772 5774 5776 5777 5778 5778 5778 5778 5779 5779 5780 5782 5782 5783 5784 5784 5784 5784 5786 5788 5789 5790 5790
5737 5737 5737 5737 5737 5737 5737 5736 5736 5736 5736 5736 5736 5736 5736 5736 5736 5736 5737 5737 5738 5738 5739 5740 5740 5741 5742 5743 5743 5744 5745 5746 5746 5747 5748 5749 5750 5751 5751 5752 5752 5752 5753 5753 5753 5754 5754 5755 5755 5757 5757 5758 5759 5760 5761 5761 5762 5764 5766 5767 5767 5767 5767 5769 5771 5772 5772 5773 5773 5773 5774 5774 5775 5776 5777 5778 5779 5780 5780 5780 5781 5783 5783 5784 5785
5734 5734 5735 5735 5735 5734 5734 5734 5734 5734 5734 5734 5734 5734 5734 5734 5734 5734 5735 5735 5736 5736 5736 5737 5737 5738 5739 5740 5741 5742 5742 5743 5744 5745 5745 5746 5747 5748 5749 5750 5750 5750 5751 5751 5751 5751 5752 5752 5752 5753 5754 5755 5755 5756 5757 5757 5758 5759 5760 5761 5762 5762 5763 5765 5766 5766 5767 5768 5769 5769 5769 5770 5770 5772 5773 5773 5774 5775 5776 5776 5777 5777 5777 5778 5779
5731 5731 5732 5732 5732 5732 5732 5732 5732 5732 5732 5732 5732 5732 5732 5732 5732 5732 5733 5733 5734 5734 5734 5735 5735 5735 5736 5737 5738 5738 5739 5740 5741 5742 5743 5744 5745 5745 5746 5747 5748 5748 5749 5749 5748 5748 5749 5749 5749 5750 5751 5751 5751 5752 5752 5753 5754 5755 5755 5756 5757 5758 5759 5760 5760 5761 5762 5763 5764 5764 5764 5765 5766 5767 5768 5769 5770 5771 5771 5771 5772 5771 5772 5773 5774
5727 5728 5728 5729 5729 5729 5729 5729 5729 5729 5730 5730 5730 5730 5730 5730 5730 5730 5730 5731 5731 5731 5732 5732 5733 5733 5733 5734 5734 5735 5736 5737 5738 5738 5739 5740 5742 5743 5744 5744 5745 5745 5746 5746 5746 5746 5746 5746 5746 5747 5747 5748 5748 5748 5748 5749 5750 5751 5751 5751 5753 5754 5755 5755 5756 5757 5757 5758 5758 5759 5760 5761 5761 5762 5763 5764 5765 5766 5766 5767 5767 5767 5767 5768 5768
5724 5725 5725 5726 5726 5726 5726 5726 5727 5727 5727 5727 5727 5728 5728 5727 5728 5728 5728 5728 5728 5729 5729 5729 5730 5730 5731 5731 5731 5732 5732 5733 5734 5735 5736 5737 5738 5739 5740 5741 5742 5742 5742 5743 5743 5743 5742 5743 5743 5743 5743 5744 5744 5744 5744 5745 5745 5746 5747 5747 5748 5749 5750 5751 5752 5752 5753 5753 5754 5754 5755 5756 5757 5757 5758 5758 5759 5760 5761 5761 5763 5763 5763 5763 5764
5721 5722 5723 5723 5723 5723 5723 5724 5724 5724 5724 5724 5724 5724 5724 5724 5725 5725 5725 5725 5725 5726 5726 5726 5727 5727 5727 5728 5728 5729 5729 5729 5730 5731 5732 5733 5734 5734 5735 5736 5737 5738 5739 5739 5739 5740 5739 5739 5739 5739 5739 5740 5740 5740 5741 5741 5741 5742 5742 5742 5743 5744 5745 5746 5747 5747 5748 5749 5749 5750 5750 5750 5751 5752 5753 5753 5754 5755 5755 5756 5757 5758 5758 5758 5758
5718 5719 5719 5720 5720 5721 5721 5720 5721 5721 5721 5721 5721 5721 5721 5721 5721 5721 5721 5721 5722 5722 5722 5723 5723 5724 5724 5724 5725 5725 5726 5726 5726 5727 5728 5729 5730 5730 5731 5731 5732 5733 5734 5735 5735 5736 5736 5735 5735 5735 5735 5735 5735 5735 5736 5737 5737 5738 5738 5738 5738 5739 5739 5740 5741 5742 5744 5745 5744 5745 5746 5746 5746 5747 5748 5748 5749 5750 5750 5751 5752 5753 5753 5753 5754
5714 5715 5716 5717 5717 5717 5717 5717 5717 5718 5718 5718 5718 5718 5717 5717 5718 5718 5718 5718 5718 5718 5719 5719 5719 5720 5720 5720 5721 5722 5722 5722 5723 5723 5724 5725 5725 5726 5727 5727 5728 5728 5729 5730 5730 5731 5731 5731 5730 5730 5730 5730 5730 5731 5731 5731 5732 5733 5733 5734 5734 5734 5734 5735 5736 5736 5738 5740 5739 5740 5741 5741 5742 5743 5743 5743 5743 5744 5744 5745 5746 5747 5748 5748 5749
5709 5710 5711 5712 5713 5713 5713 5713 5714 5714 5714 5714 5714 5714 5714 5713 5714 5714 5714 5714 5715 5715 5715 5715 5715 5715 5715 5716 5716 5717 5717 5718 5718 5719 5719 5720 5721 5721 5722 5722 5723 5724 5724 5724 5725 5726 5726 5726 5726 5726 5726 5725 5726 5726 5726 5726 5727 5727 5728 5729 5729 5730 5730 5731 5731 5731 5732 5734 5734 5734 5735 5736 5737 5738 5738 5738 5738 5739 5739 5739 5740 5741 5743 5744 5744
5705 5705 5706 5707 5708 5708 5708 5709 5709 5709 5710 5710 5710 5710 5709 5709 5709 5710 5710 5710 5710 5711 5711 5711 5711 5711 5711 5712 5712 5712 5712 5712 5713 5713 5714 5714 5715 5716 5716 5717 5718 5719 5719 5719 5720 5720 5721 5721 5721 5721 5721 5721 5721 5721 5721 5721 5722 5722 5722 5723 5723 5724 5724 5725 5726 5726 5727 5728 5729 5729 5729 5730 5731 5732 5732 5733 5733 5734 5734 5734 5734 5735 5737 5738 5739
5700 5701 5701 5702 5703 5703 5704 5704 5705 5705 5705 5705 5705 5705 5705 5705 5705 5705 5705 5705 5705 5706 5706 5706 5706 5706 5707 5707 5707 5707 5707 5707 5708 5708 5708 5709 5709 5710 5710 5711 5712 5713 5714 5714 5715 5715 5715 5716 5716 5716 5716 5717 5717 5717 5716 5716 5717 5717 5717 5717 5718 5718 5718 5718 5719 5720 5720 5721 5722 5723 5723 5723 5724 5724 5725 5726 5727 5728 5728 5729 5729 5729 5730 5731 5732
5695 5696 5696 5697 5698 5698 5699 5699 5699 5699 5700 5700 5700 5700 5699 5699 5700 5700 5700 5700 5700 5701 5700 5700 5701 5701 5701 5701 5702 5702 5702 5702 5703 5703 5703 5703 5704 5704 5704 5705 5705 5706 5707 5708 5709 5709 5710 5711 5711 5711 5711 5711 5712 5712 5712 5712 5712 5712 5712 5712 5713 5712 5712 5712 5713 5713 5713 5714 5715 5716 5717 5717 5717 5717 5718 5719 5720 5721 5722 5722 5723 5723 5723 5724 5726
5690 5690 5691 5692 5692 5692 5694 5694 5694 5693 5694 5694 5694 5694 5694 5694 5694 5694 5695 5695 5696 5696 5695 5695 5695 5695 5695 5695 5695 5696 5696 5696 5697 5697 5698 5698 5699 5699 5699 5699 5699 5700 5700 5701 5702 5703 5704 5705 5706 5706 5706 5706 5706 5707 5707 5707 5707 5707 5707 5707 5707 5707 5707 5707 5707 5707 5707 5707 5708 5709 5710 5710 5711 5711 5711 5711 5713 5714 5715 5716 5716 5717 5717 5718 5719
5685 5685 5686 5686 5687 5687 5688 5689 5689 5688 5688 5689 5689 5688 5688 5688 5688 5689 5690 5690 5690 5690 5690 5690 5690 5690 5690 5689 5690 5689 5689 5690 5690 5691 5691 5692 5693 5693 5693 5693 5693 5694 5695 5695 5696 5697 5698 5699 5700 5701 5701 5701 5701 5701 5702 5702 5701 5702 5702 5702 5702 5701 5701 5702 5702 5702 5702 5701 5701 5702 5702 5702 5703 5704 5703 5703 5705 5707 5708 5709 5710 5710 5710 5711 5712
5681 5681 5681 5681 5681 5682 5682 5682 5683 5683 5683 5683 5683 5683 5683 5682 5683 5683 5684 5684 5684 5684 5684 5684 5684 5683 5683 5683 5683 5683 5683 5683 5683 5684 5685 5686 5686 5687 5687 5687 5687 5687 5688 5689 5690 5690 5691 5693 5694 5695 5696 5696 5696 5695 5696 5696 5695 5695 5695 5696 5696 5696 5695 5695 5696 5696 5696 5696 5696 5695 5695 5695 5695 5696 5696 5695 5696 5698 5700 5701 5702 5703 5703 5704 5705
5676 5676 5676 5676 5676 5677 5677 5676 5677 5677 5677 5677 5677 5677 5676 5676 5676 5676 5677 5678 5678 5678 5679 5679 5678 5677 5677 5677 5676 5676 5676 5676 5677 5677 5678 5679 5680 5681 5681 5681 5681 5682 5682 5683 5683 5684 5684 5686 5687 5688 5689 5689 5689 5689 5689 5690 5690 5689 5689 5689 5689 5690 5689 5689 5690 5689 5689 5690 5690 5689 5689 5688 5687 5687 5689 5688 5687 5689 5691 5692 5693 5694 5696 5697 5697
5670 5671 5671 5670 5670 5671 5671 5670 5670 5672 5671 5671 5671 5670 5670 5670 5670 5670 5671 5673 5673 5672 5673 5673 5672 5671 5671 5670 5670 5669 5670 5670 5670 5670 5671 5672 5673 5674 5675 5675 5675 5676 5676 5676 5677 5677 5678 5679 5680 5681 5682 5682 5682 5683 5682 5683 5683 5683 5683 5682 5681 5682 5682 5683 5683 5683 5682 5682 5682 5682 5682 5682 5680 5678 5680 5680 5678 5679 5683 5684 5683 5684 5687 5689 5690
5664 5664 5664 5664 5664 5664 5665 5664 5664 5666 5665 5664 5664 5664 5664 5664 5664 5664 5666 5667 5667 5667 5666 5666 5666 5665 5665 5664 5664 5663 5663 5664 5664 5664 5664 5664 5665 5667 5668 5668 5669 5669 5670 5670 5670 5671 5671 5672 5673 5674 5674 5674 5675 5675 5675 5675 5676 5676 5676 5676 5675 5674 5675 5675 5676 5676 5676 5674 5674 5674 5675 5675 5673 5671 5671 5671 5669 5671 5674 5675 5674 5674 5676 5679 5681
5657 5657 5658 5657 5657 5657 5657 5657 5657 5659 5658 5657 5657 5658 5658 5657 5658 5659 5659 5660 5660 5660 5660 5659 5659 5659 5659 5658 5657 5657 5657 5658 5658 5658 5658 5658 5659 5660 5661 5661 5662 5663 5663 5664 5664 5664 5664 5664 5665 5666 5666 5667 5667 5667 5667 5667 5668 5668 5668 5668 5668 5667 5667 5668 5668 5669 5668 5667 5666 5665 5667 5667 5665 5664 5664 5662 5661 5663 5664 5665 5665 5664 5665 5669 5671
5649 5650 5650 5650 5650 5649 5650 5649 5649 5650 5650 5650 5651 5652 5651 5652 5652 5653 5653 5653 5653 5653 5652 5652 5652 5652 5652 5652 5651 5651 5651 5651 5651 5651 5651 5651 5652 5653 5653 5654 5655 5656 5657 5657 5657 5657 5656 5656 5657 5658 5658 5658 5658 5659 5659 5659 5659 5659 5659 5660 5660 5659 5659 5660 5660 5660 5660 5660 5659 5656 5657 5659 5657 5656 5656 5654 5653 5655 5654 5654 5656 5655 5654 5657 5660
5642 5643 5643 5643 5642 5642 5642 5642 5641 5641 5642 5643 5644 5644 5644 5645 5646 5646 5646 5645 5645 5645 5645 5645 5645 5646 5645 5645 5644 5644 5644 5645 5645 5645 5644 5644 5644 5645 5646 5647 5648 5649 5649 5649 5649 5649 5649 5649 5649 5649 5649 5649 5650 5651 5651 5650 5650 5650 5649 5651 5651 5649 5650 5651 5651 5652 5651 5651 5650 5647 5646 5649 5648 5647 5647 5645 5644 5647 5645 5644 5647 5645 5644 5646 5649
5634 5635 5636 5636 5636 5635 5635 5635 5635 5635 5635 5636 5637 5636 5637 5638 5638 5639 5639 5638 5638 5638 5638 5638 5638 5638 5638 5638 5638 5637 5638 5638 5638 5637 5637 5637 5637 5638 5638 5639 5640 5640 5641 5640 5640 5641 5641 5642 5642 5641 5640 5640 5640 5641 5641 5641 5641 5640 5640 5642 5641 5639 5641 5642 5641 5643 5642 5642 5642 5638 5637 5638 5637 5636 5637 5635 5634 5637 5638 5636 5636 5635 5635 5637 5638
5627 5627 5628 5629 5628 5628 5628 5628 5629 5629 5629 5630 5630 5630 5630 5631 5631 5631 5631 5631 5631 5631 5630 5630 5631 5630 5630 5630 5630 5630 5631 5631 5631 5630 5629 5629 5630 5630 5630 5631 5632 5632 5631 5631 5632 5633 5633 5633 5633 5633 5632 5631 5631 5631 5631 5631 5632 5630 5630 5631 5630 5629 5632 5632 5631 5631 5633 5634 5631 5628 5628 5629 5626 5625 5627 5625 5623 5625 5628 5629 5626 5624 5625 5627 5628